Hourly Data Report for August 03, 2020

OTTAWA INTL A
ONTARIO
Current Station Operator: NAVCAN

45°19'00.000" N
75°40'00.000" W
114.90 m
6106001
71628
YOW

Download Data

Hourly Data (August 2020)
Hourly Data Report for August 3, 2020
TIME
LST
Temp Definition
°C
Dew Point Definition
°C
Rel Hum Definition
%
Precip. Amount Definition
mm

Wind Dir Definition
10's deg

Wind Spd Definition
km/h
Visibility Definition
km
Stn Press Definition
kPa
Hmdx Definition


Wind Chill Definition


Weather Definition


00:00 20.7 20.3 97   18 6 24.1 99.05 29   LegendNANA
01:00 21.6 19.5 88   19 21 24.1 99.00 29   Mostly Cloudy
02:00 20.9 19.6 92   20 17 16.1 99.01 28   LegendNANA
03:00 20.6 20.0 97   22 19 8.1 99.02 28   Rain, Fog
04:00 19.2 18.8 97   28 23 6.4 99.13     Drizzle, Fog
05:00 18.5 17.8 96   28 28 12.9 99.32     LegendNANA
06:00 16.9 16.1 95   27 34 9.7 99.50     Drizzle, Fog
07:00 16.6 15.8 95   28 32 9.7 99.69     Drizzle, Fog
08:00 17.4 15.7 89   29 26 24.1 99.84     LegendNANA
09:00 18.4 15.3 82   28 34 24.1 99.95     LegendNANA
10:00 19.2 15.9 81   28 23 24.1 100.06     Mostly Cloudy
11:00 20.8 15.6 72   29 24 24.1 100.13 25   LegendNANA
12:00 21.6 16.4 72   29 20 24.1 100.16 26   LegendNANA
13:00 22.2 16.1 68   27 17 24.1 100.20 27   Mostly Cloudy
14:00 22.9 16.5 67   30 12 24.1 100.21 28   LegendNANA
15:00 24.0 17.1 65   27 10 24.1 100.19 29   LegendNANA
16:00 24.6 16.9 61   28 15 24.1 100.17 30   Mainly Clear
17:00 24.7 16.9 61   34 13 24.1 100.16 30   LegendNANA
18:00 24.5 16.2 59   32 10 24.1 100.18 29   LegendNANA
19:00 22.9 16.8 68   7 10 24.1 100.23 28   Mostly Cloudy
20:00 20.9 18.4 86   4 10 24.1 100.30 27   Rain Showers
21:00 19.4 18.1 92   4 12 24.1 100.31     LegendNANA
22:00 18.9 17.7 92   5 14 24.1 100.28     Clear
23:00 18.8 17.2 90   6 16 24.1 100.27     LegendNANA

Notes on Data Quality.

Legend

  • E = Estimated
  • M = Missing
  • NA = Not Available*
  • [empty] = Indicates an unobserved value
Date modified: